Regional Weather Roundup
Issued by NWS

Home | Current Version | Previous Version | Text Only | Print | Product List | Glossary On
Versions: 1 2 3 4 5 6 7 8 9 10 11 12 13 14 15 16 17 18 19 20 21 22 23 24 25 26 27 28 29 30 31 32 33 34 35 36 37 38 39 40 41 42 43 44 45 46 47 48 49 50
000
ASCA42 TJSJ 262010
RWRPR
PUERTO RICO/U.S. VIRGIN ISLANDS HOURLY WEATHER ROUNDUP
NATIONAL WEATHER SERVICE SAN JUAN PR
400 PM AST MON JUN 26 2017

PRZ001>002-007>008-010-262100-
PUERTO RICO

CITY           SKY/WX    TMP DP  RH WIND       PRES   REMARKS
SAN JUAN LMM   MOSUNNY   88  75  66 NE20      29.99F HX  97
AGUADILLA      PTSUNNY   84  72  65 E18G28    30.00S
CEIBA          CLOUDY    84  79  84 E9        30.02F HX  96
$$

VIZ001>002-262100-
U.S. VIRGIN ISLANDS

CITY           SKY/WX    TMP DP  RH WIND       PRES   REMARKS
CHARLOTTE AMA  MOSUNNY   91  73  55 E15       29.98F HX 100
CHRISTIANSTED  MOSUNNY   88  75  66 E20G28    29.98F HX  97
$$

HOURLY WEATHER ROUNDUP FOR THE NEWS MEDIA

CITY           SKY/WX    TMP DP  RH WIND       PRES   REMARKS
ORLANDO        TSTM      78  77  96 NE20      30.03R FOG
NEW YORK       MOSUNNY   76  54  46 S22       30.01F
NEWARK         PTSUNNY   81  44  27 W16       29.99S
CHICAGO        PTSUNNY   72  39  30 W23G33    30.04F
HARTFORD       MOSUNNY   75  57  53 SW12G21   29.96F
BOSTON         MOSUNNY   78  48  34 W14       29.93F
DALLAS         CLOUDY    85  69  58 NE8       30.07F
PHILADELPHIA   MOSUNNY   80  45  28 SW12      30.02S
LOS ANGELES    SUNNY     81  61  50 W15       29.93S
WASHINGTON DC  MOSUNNY   79  47  32 SW6       30.03F


USA.gov is the U.S. government's official web portal to all federal, state and local government web resources and services.